Location: Grand Lay
(47.3253°N, 0.9468°E)
Time: 06:53:08
(UTC+00:00)

CBERS-1 - Pass Details

Date: 18 January 2026
Orbit: 765 x 772 km, 98.9° (Epoch: 17 February)

Event Time Altitude Azimuth Distance (km) Brightness Sun altitude
Rises 06:46:28 0° 9° (N) 3,245 7.1 -8.5°
Reaches altitude 10° 06:48:51 10° 4° (N) 2,314 6.3 -8.1°
Maximum altitude 06:53:42 46° 292° (WNW) 1,026 4.3 -7.4°
Drops below altitude 10° 06:58:31 10° 220° (SW) 2,302 6.3 -6.6°
Sets 07:00:53 0° 215° (SW) 3,225 7.1 -6.2°
